FW1404 Weather Reports


Display with metric or nautical units.
time (UTC)temp
F
wind
direction
speed
MPH
gust
MPH
rain 1hr
in
rain 24hr
in
rain mn
in
humidity
%
barometer
mb
20260509105231 60 82 2.0 4.0 0.00 0.00 0.00 57 1019.9
20260509104733 60 9 2.0 6.0 0.00 0.00 0.00 58 1019.9
20260509104232 60 9 4.0 6.0 0.00 0.00 0.00 57 1019.9
20260509103733 60 41 3.0 7.0 0.00 0.00 0.00 57 1019.8
20260509103230 60 43 5.0 7.0 0.00 0.00 0.00 58 1019.9
20260509102732 60 23 4.0 6.0 0.00 0.00 0.00 58 1019.9
20260509102231 60 73 2.0 5.0 0.00 0.00 0.00 61 1019.9
20260509101732 60 65 1.0 5.0 0.00 0.00 0.00 61 1019.9
20260509101515 60 85 4.0 7.0 0.00 0.00 0.00 59 1020.0
20260509100732 60 60 5.0 7.0 0.00 0.00 0.00 59 1020.0
20260509100230 60 67 6.0 9.0 0.00 0.00 0.00 58 1020.0
20260509095731 61 60 6.0 9.0 0.00 0.00 0.00 58 1020.0
20260509095229 62 22 2.0 5.0 0.00 0.00 0.00 58 1020.0
20260509094731 62 36 3.0 5.0 0.00 0.00 0.00 58 1020.0
20260509094230 61 347 2.0 4.0 0.00 0.00 0.00 62 1020.1
20260509094046 59 324 2.0 7.0 0.00 0.00 0.00 65 1020.2
20260509094037 59 325 2.0 7.0 0.00 0.00 0.00 65 1020.2
20260509092732 58 352 2.0 6.0 0.00 0.00 0.00 65 1020.2
20260509092230 58 84 4.0 6.0 0.00 0.00 0.00 63 1020.1
20260509091730 58 355 3.0 5.0 0.00 0.00 0.00 62 1020.0
20260509091229 58 5 3.0 6.0 0.00 0.00 0.00 64 1020.1
20260509090730 58 5 4.0 6.0 0.00 0.00 0.00 64 1020.0
20260509090229 58 32 1.0 6.0 0.00 0.00 0.00 63 1020.1
20260509085730 58 56 3.0 5.0 0.00 0.00 0.00 65 1020.0
20260509085229 58 57 4.0 6.0 0.00 0.00 0.00 65 1019.9
20260509085029 58 40 4.0 6.0 0.00 0.00 0.00 67 1020.0
20260509084229 58 64 2.0 4.0 0.00 0.00 0.00 72 1020.0
20260509083729 57 50 1.0 2.0 0.00 0.00 0.00 72 1020.1
20260509083228 57 286 0.0 5.0 0.00 0.00 0.00 72 1020.1
20260509083013 57 286 2.0 5.0 0.00 0.00 0.00 71 1020.2
20260509082228 57 358 0.0 4.0 0.00 0.00 0.00 70 1020.0
20260509082013 57 358 2.0 4.0 0.00 0.00 0.00 70 1020.0
20260509081227 58 354 2.0 5.0 0.00 0.00 0.00 69 1020.1
20260509080731 58 22 3.0 5.0 0.00 0.00 0.00 67 1020.1
20260509080518 59 8 3.0 5.0 0.00 0.00 0.00 65 1020.0
20260509075730 60 359 4.0 7.0 0.00 0.00 0.00 65 1020.0
20260509075229 60 32 3.0 7.0 0.00 0.00 0.00 65 1020.1
20260509074728 61 40 2.0 6.0 0.00 0.00 0.00 67 1020.0
20260509074227 60 354 4.0 6.0 0.00 0.00 0.00 67 1020.0
20260509073728 60 315 1.0 3.0 0.00 0.00 0.00 67 1020.0
20260509073227 60 26 1.0 4.0 0.00 0.00 0.00 65 1020.0
20260509072729 60 34 3.0 4.0 0.00 0.00 0.00 67 1019.9
20260509072500 60 27 1.0 4.0 0.00 0.00 0.00 67 1019.9
20260509071728 60 27 2.0 5.0 0.00 0.00 0.00 66 1020.0
20260509071226 60 33 1.0 5.0 0.00 0.00 0.00 68 1020.0
20260509070728 60 320 1.0 3.0 0.00 0.00 0.00 68 1020.0
20260509070512 60 331 1.0 2.0 0.00 0.00 0.00 64 1020.0
20260509065727 59 341 1.0 2.0 0.00 0.00 0.00 68 1020.1
20260509065227 58 347 0.0 3.0 0.00 0.00 0.00 68 1020.1
20260509064727 58 227 1.0 3.0 0.00 0.00 0.00 67 1020.1
20260509064511 57 18 0.0 2.0 0.00 0.00 0.00 67 1020.0
20260509064012 57 18 0.0 3.0 0.00 0.00 0.00 67 1020.1
20260509063227 56 16 0.0 3.0 0.00 0.00 0.00 71 1020.1
20260509062727 56 341 1.0 3.0 0.00 0.00 0.00 74 1020.1
20260509062226 55 63 0.0 3.0 0.00 0.00 0.00 74 1019.9
20260509061727 55 64 2.0 3.0 0.00 0.00 0.00 76 1019.9
20260509061225 54 118 1.0 1.0 0.00 0.00 0.00 76 1019.9
20260509061013 54 120 0.0 1.0 0.00 0.00 0.00 77 1019.9
20260509060225 53 163 0.0 2.0 0.00 0.00 0.00 78 1019.8
20260509060019 53 162 0.0 3.0 0.00 0.00 0.00 78 1019.8
20260509055225 53 158 1.0 3.0 0.00 0.00 0.00 81 1019.8
20260509054759 52 148 0.0 1.0 0.00 0.00 0.00 86 1019.8
20260509054751 52 149 1.0 2.0 0.00 0.00 0.00 83 1019.8
20260509053709 51 155 0.0 1.0 0.00 0.00 0.00 86 1019.8
20260509053205 50 280 1.0 1.0 0.00 0.00 0.00 87 1019.9
20260509052704 49 280 0.0 1.0 0.00 0.00 0.00 88 1019.8
20260509052203 49 279 0.0 2.0 0.00 0.00 0.00 89 1019.7
20260509051703 48 279 1.0 2.0 0.00 0.00 0.00 89 1019.8
20260509051450 48 280 1.0 2.0 0.00 0.00 0.00 89 1019.8
20260509050704 48 289 1.0 2.0 0.00 0.00 0.00 89 1019.8
20260509050204 47 290 0.0 1.0 0.00 0.00 0.00 89 1019.8
20260509045703 47 290 0.0 1.0 0.00 0.00 0.00 89 1019.8
20260509045203 47 289 0.0 0.0 0.00 0.00 0.00 89 1019.8
20260509044704 47 289 0.0 0.0 0.00 0.00 0.00 89 1019.7
20260509044204 46 284 0.0 0.0 0.00 0.00 0.00 89 1019.6
20260509043705 46 286 0.0 0.0 0.00 0.00 0.00 89 1019.6
20260509043202 46 284 0.0 0.0 0.00 0.00 0.00 89 1019.6
20260509042702 46 286 0.0 0.0 0.00 0.00 0.00 89 1019.7
20260509042205 45 284 0.0 0.0 0.00 0.00 0.00 89 1019.6
20260509041704 45 284 0.0 1.0 0.00 0.00 0.00 89 1019.6
20260509041204 44 284 0.0 1.0 0.00 0.00 0.00 89 1019.6
20260509040706 44 284 0.0 1.0 0.00 0.00 0.00 88 1019.6
20260509040204 44 284 0.0 1.0 0.00 0.00 0.00 88 1019.7
20260509035950 44 23 0.0 1.0 0.00 0.00 0.00 88 1019.6
20260509035204 44 23 0.0 0.0 0.00 0.00 0.00 88 1019.6
20260509034705 44 23 0.0 0.0 0.00 0.00 0.00 88 1019.5
20260509034443 44 23 0.0 0.0 0.00 0.00 0.00 88 1019.6
20260509033706 44 23 0.0 0.0 0.00 0.00 0.00 88 1019.6
20260509033314 44 60 0.0 2.0 0.00 0.00 0.00 88 1019.5
20260509033255 44 23 0.0 0.0 0.00 0.00 0.00 88 1019.7
20260509033021 44 60 0.0 2.0 0.00 0.00 0.00 88 1019.5
20260509031704 44 60 0.0 0.0 0.00 0.00 0.00 88 1019.6
20260509031203 44 60 0.0 0.0 0.00 0.00 0.00 88 1019.6
20260509030704 44 60 0.0 0.0 0.00 0.00 0.00 88 1019.6
20260509030204 44 60 0.0 0.0 0.00 0.00 0.00 88 1019.7
20260509025705 44 60 0.0 0.0 0.00 0.00 0.00 88 1019.7
20260509025448 43 60 0.0 0.0 0.00 0.00 0.00 88 1019.6
20260509024956 44 60 0.0 0.0 0.00 0.00 0.00 88 1019.6
20260509024203 43 60 0.0 0.0 0.00 0.00 0.00 88 1019.5
20260509023701 43 60 0.0 0.0 0.00 0.00 0.00 88 1019.6
20260509023203 43 60 0.0 0.0 0.00 0.00 0.00 87 1019.6
20260509022704 43 60 0.0 0.0 0.00 0.00 0.00 87 1019.5
20260509022204 43 60 0.0 0.0 0.00 0.00 0.00 87 1019.5
20260509021955 43 60 0.0 0.0 0.00 0.00 0.00 87 1019.5
20260509021204 43 60 0.0 0.0 0.00 0.00 0.00 87 1019.6
20260509020950 42 60 0.0 0.0 0.00 0.00 0.00 87 1019.6
20260509020204 42 60 0.0 0.0 0.00 0.00 0.00 86 1019.6
20260509015704 42 60 0.0 0.0 0.00 0.00 0.00 86 1019.5
20260509015205 42 60 0.0 0.0 0.00 0.00 0.00 86 1019.5
20260509014705 42 60 0.0 0.0 0.00 0.00 0.00 86 1019.5
20260509014205 42 60 0.0 0.0 0.00 0.00 0.00 86 1019.6
20260509013705 42 60 0.0 0.0 0.00 0.00 0.00 86 1019.6
20260509013205 42 60 0.0 0.0 0.00 0.00 0.00 86 1019.6
20260509012705 43 60 0.0 0.0 0.00 0.00 0.00 86 1019.6
20260509012204 43 60 0.0 1.0 0.00 0.00 0.00 85 1019.6
20260509011740 43 60 0.0 0.0 0.00 0.00 0.00 85 1019.6
20260509011725 43 60 1.0 1.0 0.00 0.00 0.00 85 1019.6
20260509010703 43 60 0.0 0.0 0.00 0.00 0.00 85 1019.5
20260509010204 43 60 0.0 0.0 0.00 0.00 0.00 85 1019.5
20260509005703 44 60 0.0 0.0 0.00 0.00 0.00 85 1019.4
20260509005203 44 60 0.0 0.0 0.00 0.00 0.00 85 1019.5
20260509004702 44 60 0.0 0.0 0.00 0.00 0.00 85 1019.6
20260509004204 44 60 0.0 0.0 0.00 0.00 0.00 84 1019.5
20260509003702 44 60 0.0 0.0 0.00 0.00 0.00 84 1019.5
20260509003205 45 60 0.0 0.0 0.00 0.00 0.00 84 1019.6
20260509002632 45 60 0.0 0.0 0.00 0.00 0.00 84 1019.5
20260509002130 45 60 0.0 0.0 0.00 0.00 0.00 84 1019.4
20260509001632 46 60 0.0 0.0 0.00 0.00 0.00 84 1019.5
20260509001117 46 60 0.0 2.0 0.00 0.00 0.00 84 1019.5
20260509000619 46 60 0.0 2.0 0.00 0.00 0.00 84 1019.5
20260509000403 46 60 1.0 2.0 0.00 0.00 0.00 84 1019.6
20260508235619 47 60 0.0 2.0 0.00 0.00 0.00 84 1019.6
20260508235408 47 60 1.0 2.0 0.00 0.00 0.00 84 1019.6
20260508234617 47 60 1.0 2.0 0.00 0.00 0.00 84 1019.6
20260508234117 47 60 1.0 2.0 0.00 0.00 0.00 84 1019.7
20260508233619 47 60 0.0 1.0 0.00 0.00 0.00 84 1019.6
20260508233117 48 60 0.0 1.0 0.00 0.00 0.00 85 1019.6
20260508232615 48 60 1.0 1.0 0.00 0.00 0.00 84 1019.6
20260508232118 48 60 1.0 2.0 0.00 0.00 0.00 84 1019.7
20260508231615 48 60 1.0 2.0 0.00 0.00 0.00 85 1019.7
20260508231408 48 60 0.0 3.0 0.00 0.00 0.00 85 1019.7
20260508230616 49 60 0.0 5.0 0.00 0.00 0.00 85 1019.8
20260508230117 49 60 3.0 5.0 0.00 0.00 0.00 85 1019.8
20260508225658 48 51 0.0 2.0 0.00 0.00 0.00 84 1019.7
20260508225636 48 51 3.0 4.0 0.00 0.00 0.00 84 1019.7
20260508224616 49 51 0.0 2.0 0.00 0.00 0.00 83 1019.7
20260508224114 49 51 0.0 0.0 0.00 0.00 0.00 83 1019.7
20260508223615 49 51 0.0 0.0 0.00 0.01 0.00 83 1019.7
20260508223116 49 51 0.0 0.0 0.00 0.01 0.00 83 1019.7
20260508222616 49 51 0.0 1.0 0.00 0.01 0.00 83 1019.7
20260508222118 49 51 0.0 2.0 0.00 0.01 0.00 84 1019.6
20260508221616 49 51 2.0 2.0 0.00 0.01 0.00 83 1019.7
20260508221407 49 51 1.0 2.0 0.00 0.01 0.00 83 1019.7
20260508220616 49 51 0.0 1.0 0.00 0.01 0.00 83 1019.7
20260508220201 49 51 0.0 2.0 0.00 0.02 0.02 82 1019.8
20260508220147 50 51 0.0 1.0 0.00 0.02 0.00 83 1019.7
20260508215116 49 51 1.0 2.0 0.00 0.02 0.02 82 1019.7
20260508214615 49 51 0.0 0.0 0.00 0.02 0.02 82 1019.7
20260508214114 50 51 0.0 0.0 0.00 0.02 0.02 82 1019.7
20260508213617 50 51 0.0 0.0 0.00 0.02 0.02 81 1019.7
20260508213405 50 51 0.0 0.0 0.00 0.02 0.02 82 1019.7
20260508212617 50 51 0.0 0.0 0.00 0.02 0.02 82 1019.6
20260508212115 50 51 0.0 0.0 0.00 0.02 0.02 81 1019.6
20260508211613 50 51 0.0 0.0 0.00 0.02 0.02 81 1019.6
20260508211350 50 51 0.0 0.0 0.00 0.02 0.02 81 1019.6
20260508210704 50 51 0.0 1.0 0.00 0.02 0.02 81 1019.8
20260508210644 50 51 0.0 0.0 0.00 0.02 0.02 81 1019.8
20260508205851 50 51 0.0 1.0 0.00 0.02 0.02 81 1019.7
20260508205103 50 51 0.0 1.0 0.00 0.02 0.02 81 1019.8
20260508204947 50 53 0.0 2.0 0.00 0.02 0.02 81 1019.7
20260508204943 50 51 0.0 2.0 0.00 0.02 0.02 81 1019.7
20260508203603 50 51 1.0 2.0 0.00 0.02 0.02 80 1019.7
20260508203104 50 53 1.0 1.0 0.00 0.02 0.02 81 1019.6
20260508202605 50 51 1.0 1.0 0.00 0.02 0.02 80 1019.7
20260508202105 50 51 1.0 1.0 0.00 0.02 0.02 80 1019.5
20260508201857 50 53 0.0 1.0 0.00 0.02 0.02 80 1019.6
20260508201104 51 53 0.0 1.0 0.00 0.02 0.02 80 1019.6
20260508200850 51 51 0.0 0.0 0.00 0.02 0.02 80 1019.6
20260508200105 51 53 0.0 0.0 0.00 0.02 0.02 80 1019.6
20260508195606 51 51 0.0 0.0 0.00 0.02 0.02 79 1019.5
20260508195105 51 51 0.0 0.0 0.00 0.02 0.02 79 1019.5
20260508194603 51 51 0.0 0.0 0.00 0.02 0.02 79 1019.6
20260508194105 51 53 0.0 1.0 0.00 0.02 0.02 79 1019.6
20260508193856 51 53 0.0 1.0 0.00 0.02 0.02 79 1019.5
20260508193345 51 53 1.0 1.0 0.00 0.02 0.02 79 1019.5
20260508192606 51 53 1.0 2.0 0.00 0.02 0.02 79 1019.5
20260508192105 51 53 1.0 2.0 0.00 0.02 0.02 78 1019.4
20260508191700 51 53 1.0 3.0 0.00 0.02 0.02 78 1019.4
20260508191639 51 53 1.0 2.0 0.00 0.02 0.02 78 1019.4
20260508190605 51 53 2.0 3.0 0.00 0.02 0.02 78 1019.4
20260508190104 51 53 2.0 2.0 0.00 0.02 0.02 78 1019.4
20260508185607 51 53 1.0 2.0 0.00 0.02 0.02 78 1019.3
20260508185105 51 53 1.0 2.0 0.00 0.02 0.02 77 1019.3
20260508184606 51 53 2.0 3.0 0.00 0.02 0.02 77 1019.2
20260508184358 52 53 2.0 4.0 0.00 0.02 0.02 77 1019.2
20260508183626 52 53 4.0 4.0 0.00 0.02 0.02 77 1019.2
20260508183440 52 51 2.0 4.0 0.00 0.02 0.02 76 1019.1
20260508183436 52 51 3.0 4.0 0.00 0.02 0.02 77 1019.1
20260508182105 52 51 3.0 5.0 0.00 0.02 0.02 76 1019.0
20260508181605 52 50 3.0 5.0 0.00 0.02 0.02 76 1018.9
20260508181106 52 78 3.0 3.0 0.00 0.02 0.02 76 1018.9
20260508180605 52 78 2.0 3.0 0.00 0.02 0.02 75 1018.9
20260508180047 52 78 2.0 3.0 0.00 0.02 0.02 75 1018.8
20260508175849 52 78 2.0 3.0 0.00 0.02 0.02 75 1018.8
20260508175042 52 78 2.0 3.0 0.00 0.02 0.02 74 1018.8
20260508174532 52 78 2.0 3.0 0.00 0.02 0.02 74 1018.8
20260508174033 52 68 1.0 3.0 0.00 0.02 0.02 75 1018.8
20260508173815 52 68 1.0 2.0 0.00 0.02 0.02 74 1018.8
20260508173032 52 68 1.0 2.0 0.00 0.02 0.02 74 1018.8
20260508172533 52 68 2.0 3.0 0.00 0.02 0.02 73 1018.7
20260508172421 53 68 0.0 2.0 0.00 0.02 0.02 73 1018.7
20260508172115 53 68 2.0 3.0 0.00 0.02 0.02 73 1018.7
20260508171015 53 68 1.0 2.0 0.00 0.02 0.02 73 1018.6
20260508170516 53 68 1.0 3.0 0.00 0.02 0.02 73 1018.7
20260508170010 53 68 2.0 3.0 0.00 0.02 0.02 73 1018.6
20260508165547 53 68 2.0 4.0 0.00 0.02 0.02 73 1018.5
20260508165531 53 68 2.0 3.0 0.00 0.02 0.02 73 1018.6
20260508164510 53 67 2.0 4.0 0.00 0.02 0.02 73 1018.7
20260508164010 53 67 1.0 3.0 0.00 0.02 0.02 73 1018.6
20260508163758 53 67 2.0 4.0 0.00 0.02 0.02 72 1018.7
20260508163010 53 65 2.0 4.0 0.00 0.02 0.02 73 1018.6
20260508162510 53 67 3.0 4.0 0.00 0.02 0.02 73 1018.7
20260508162008 53 75 2.0 4.0 0.00 0.02 0.02 72 1018.7
20260508161505 53 75 2.0 4.0 0.00 0.02 0.02 73 1018.6
20260508161005 53 74 1.0 4.0 0.00 0.02 0.02 72 1018.6
20260508160504 53 75 2.0 4.0 0.00 0.02 0.02 72 1018.6
20260508160005 53 71 2.0 5.0 0.00 0.02 0.02 71 1018.6
20260508155505 54 75 4.0 5.0 0.00 0.02 0.02 71 1018.7
20260508155005 54 80 2.0 4.0 0.00 0.03 0.02 71 1018.6
20260508154505 54 81 3.0 5.0 0.00 0.03 0.02 71 1018.5
20260508154005 54 81 3.0 5.0 0.00 0.03 0.02 71 1018.6
20260508153504 54 92 3.0 5.0 0.00 0.03 0.02 71 1018.6
20260508153005 54 64 2.0 5.0 0.00 0.03 0.02 71 1018.6
20260508152746 54 70 3.0 5.0 0.00 0.03 0.02 71 1018.5
20260508152004 54 37 2.0 7.0 0.00 0.03 0.02 71 1018.5
20260508151504 54 34 5.0 7.0 0.00 0.04 0.02 71 1018.5
20260508151006 54 47 4.0 6.0 0.00 0.05 0.02 71 1018.6
20260508150503 54 53 3.0 7.0 0.00 0.05 0.02 71 1018.6
20260508150006 54 27 5.0 7.0 0.00 0.06 0.02 71 1018.6
20260508145505 54 27 5.0 7.0 0.00 0.06 0.02 70 1018.6
20260508145005 54 54 4.0 7.0 0.00 0.06 0.02 70 1018.6
20260508144749 54 39 5.0 7.0 0.00 0.07 0.02 70 1018.7
20260508144004 54 61 4.0 9.0 0.00 0.07 0.02 70 1018.4
20260508143505 54 33 4.0 11.0 0.00 0.07 0.02 68 1018.5
20260508143005 54 16 7.0 11.0 0.00 0.07 0.02 69 1018.5
20260508142505 55 40 3.0 10.0 0.00 0.07 0.02 69 1018.5
20260508142006 55 41 6.0 10.0 0.00 0.07 0.02 68 1018.5
20260508141503 55 49 5.0 7.0 0.00 0.07 0.02 68 1018.4
20260508141006 56 358 5.0 10.0 0.00 0.07 0.02 67 1018.5
20260508140505 56 356 5.0 10.0 0.00 0.07 0.02 67 1018.4
20260508140005 56 40 5.0 7.0 0.00 0.07 0.02 67 1018.4
20260508135504 56 26 5.0 7.0 0.00 0.07 0.02 68 1018.4
20260508135246 56 16 2.0 6.0 0.00 0.07 0.02 71 1018.2
20260508134505 55 39 4.0 5.0 0.00 0.07 0.02 71 1018.3
20260508134004 55 54 3.0 5.0 0.00 0.07 0.02 71 1018.4
20260508133504 55 33 4.0 5.0 0.00 0.07 0.02 72 1018.4
20260508133003 54 47 3.0 5.0 0.00 0.07 0.02 71 1018.5
20260508132504 54 33 4.0 6.0 0.00 0.07 0.02 71 1018.5
20260508132004 55 50 4.0 6.0 0.00 0.07 0.02 70 1018.6
20260508131501 55 43 2.0 5.0 0.00 0.07 0.02 69 1018.6
20260508130933 55 68 2.0 7.0 0.00 0.07 0.02 70 1018.7
20260508130431 55 67 6.0 7.0 0.00 0.07 0.02 69 1018.8
20260508125933 56 54 4.0 7.0 0.00 0.07 0.02 70 1018.8
20260508125407 55 8 3.0 5.0 0.00 0.07 0.02 72 1018.8
20260508124905 55 8 1.0 4.0 0.00 0.07 0.02 72 1018.8
20260508124407 54 8 1.0 5.0 0.00 0.07 0.02 72 1018.8
20260508123904 54 5 3.0 5.0 0.00 0.07 0.02 76 1018.8
20260508123404 53 2 1.0 4.0 0.00 0.07 0.02 76 1018.8
20260508122905 53 2 1.0 4.0 0.00 0.07 0.02 76 1018.7
20260508122403 53 2 2.0 4.0 0.00 0.07 0.02 76 1018.7
20260508122154 52 10 1.0 4.0 0.00 0.07 0.02 76 1018.7
20260508121403 52 10 3.0 5.0 0.00 0.07 0.02 76 1018.8
20260508120903 52 10 4.0 5.0 0.00 0.07 0.02 76 1019.0
20260508120403 52 6 4.0 5.0 0.00 0.07 0.02 76 1019.0
20260508115902 52 25 3.0 6.0 0.00 0.07 0.02 74 1019.0
20260508115401 52 29 5.0 6.0 0.00 0.07 0.02 74 1018.9
20260508115140 53 44 4.0 5.0 0.00 0.07 0.02 75 1019.0
20260508114402 53 13 4.0 10.0 0.00 0.07 0.02 74 1018.9
20260508114149 53 3 5.0 10.0 0.00 0.07 0.02 73 1018.9
20260508113402 53 26 3.0 5.0 0.00 0.07 0.02 74 1018.9
20260508112903 54 29 3.0 4.0 0.00 0.07 0.02 74 1018.9
20260508112401 53 6 0.0 5.0 0.00 0.07 0.02 77 1018.8
20260508111902 53 8 1.0 5.0 0.00 0.07 0.02 77 1018.8
20260508111402 53 23 0.0 4.0 0.00 0.07 0.02 78 1018.8
20260508110901 53 91 1.0 3.0 0.00 0.07 0.02 78 1018.8
20260508110402 52 87 2.0 3.0 0.00 0.07 0.02 77 1018.9
20260508105900 52 56 1.0 5.0 0.00 0.07 0.02 78 1018.9
20260508105650 52 54 1.0 5.0 0.00 0.07 0.02 78 1018.9